Temperature
15 12 11 11 12 14 14 13 12 10 9 6 5 5 5 5 4 3 4 4 4 4 4 4 4 4 4 4 4 3 3 3 3 3 3 3 3 2 3 3 3 3 4 4
12 11 11 12 12 12 13 13 12 10 9 6 5 4 3 4 3 3 3 3 3 3 3 3 3 3 2 2 2 2 2 1 1 0 0 0 0 1 1 1 2 2 3 3
12 12 12 12 10 11 12 13 12 10 7 6 5 5 3 3 3 3 3 3 3 2 2 2 1 1 1 1 1 0 0 -0 -1 -1 -1 -1 -1 -1 -0 0 1 1 2 2
12 12 12 11 11 11 12 12 11 10 8 6 6 4 3 2 2 2 2 2 2 2 1 1 0 -0 -0 -1 -1 -1 -1 -1 -2 -2 -2 -3 -3 -3 -3 -2 -1 0 1 1
12 12 11 11 11 11 11 10 10 9 8 6 6 4 3 2 2 1 2 2 2 1 1 0 -0 -1 -2 -2 -2 -2 -2 -2 -3 -3 -3 -4 -4 -4 -4 -4 -3 -2 -1 -0
11 12 11 11 11 10 9 9 9 7 7 8 7 5 3 1 2 1 1 2 1 1 0 -1 -1 -2 -3 -3 -3 -4 -4 -4 -4 -4 -4 -5 -5 -5 -5 -5 -4 -4 -4 -3
11 12 10 11 11 9 8 8 9 9 9 8 4 3 1 2 2 2 2 1 1 0 -1 -2 -2 -3 -4 -4 -4 -5 -5 -5 -5 -5 -6 -6 -6 -6 -6 -6 -6 -6 -5 -5
10 11 10 9 10 10 9 9 9 9 8 6 4 2 1 2 2 2 2 1 0 -1 -2 -2 -3 -4 -5 -5 -5 -6 -6 -6 -6 -6 -6 -7 -7 -7 -7 -7 -7 -6 -6 -6
9 10 9 9 10 11 10 7 8 6 6 5 4 2 2 2 2 2 1 1 -0 -1 -2 -3 -4 -5 -5 -5 -6 -6 -7 -7 -7 -7 -7 -7 -8 -8 -7 -7 -7 -7 -6 -6
9 8 9 8 10 8 8 7 6 7 7 6 5 2 1 1 0 -0 0 0 -1 -2 -3 -4 -4 -5 -5 -6 -6 -7 -7 -8 -8 -8 -8 -9 -8 -8 -8 -7 -7 -7 -7 -6
8 8 7 8 8 8 8 7 5 4 5 5 4 4 1 1 1 -1 0 0 -1 -2 -3 -4 -5 -5 -6 -7 -7 -8 -8 -8 -9 -9 -9 -9 -9 -9 -8 -8 -8 -7 -7 -7
6 5 6 7 7 7 7 6 5 6 5 3 2 2 2 1 1 1 0 -0 -2 -3 -4 -4 -5 -6 -7 -7 -8 -8 -9 -9 -9 -9 -9 -9 -9 -9 -9 -9 -8 -8 -8 -7
6 6 7 9 8 6 5 5 5 4 3 2 1 2 1 1 1 1 0 -1 -2 -3 -4 -5 -6 -7 -8 -8 -9 -9 -9 -10 -10 -10 -10 -10 -9 -10 -9 -9 -9 -9 -9 -8
6 5 7 9 7 5 5 4 4 3 2 1 1 1 1 -0 -1 0 -0 -1 -3 -4 -5 -6 -7 -8 -8 -8 -9 -10 -10 -10 -10 -10 -10 -10 -10 -10 -10 -10 -10 -10 -9 -9
5 5 5 4 3 4 3 3 3 3 2 1 1 1 0 -1 -1 -0 -1 -2 -3 -5 -6 -7 -8 -8 -9 -9 -9 -10 -10 -10 -11 -11 -11 -11 -11 -11 -11 -11 -11 -10 -10 -10
3 4 4 4 2 3 3 2 3 2 2 1 1 -0 1 1 0 -1 -2 -3 -4 -6 -7 -8 -8 -9 -9 -10 -10 -10 -11 -11 -11 -11 -11 -12 -12 -12 -12 -12 -12 -11 -11 -10
2 3 4 3 2 3 2 2 2 2 2 1 0 -0 0 -1 -1 -2 -3 -4 -6 -7 -7 -8 -9 -9 -10 -10 -11 -11 -11 -12 -12 -12 -12 -12 -13 -13 -13 -13 -12 -12 -12 -11
2 2 1 1 2 4 3 2 2 2 1 0 0 -0 0 -1 -1 -2 -4 -5 -6 -7 -8 -9 -9 -9 -10 -11 -11 -11 -12 -12 -12 -12 -12 -13 -13 -13 -13 -13 -13 -13 -12 -12
2 2 0 -0 2 2 2 2 2 2 1 0 0 0 -0 -1 -2 -3 -4 -5 -7 -8 -9 -9 -9 -10 -10 -11 -11 -11 -12 -12 -12 -13 -13 -13 -14 -14 -14 -14 -14 -13 -13 -13
0 -1 -1 -1 3 4 3 2 2 1 -0 1 1 -0 -1 -2 -4 -4 -5 -6 -7 -8 -9 -9 -9 -10 -10 -11 -11 -12 -12 -13 -13 -13 -13 -14 -14 -14 -14 -14 -14 -14 -14 -13
2 0 -1 -1 -0 0 1 2 2 0 0 1 0 -0 -2 -3 -4 -5 -6 -7 -8 -8 -9 -9 -9 -10 -11 -11 -11 -12 -12 -13 -13 -13 -13 -13 -14 -14 -14 -14 -14 -14 -14 -14
1 -0 -1 -1 -1 0 2 1 -0 0 1 0 -0 -1 -3 -4 -5 -6 -7 -8 -8 -8 -9 -9 -9 -10 -10 -11 -12 -12 -12 -13 -13 -13 -13 -13 -13 -14 -14 -14 -14 -14 -14 -14
-0 0 -1 -0 1 1 2 2 1 1 1 -0 -1 -2 -4 -5 -6 -7 -7 -8 -8 -8 -9 -9 -9 -10 -10 -11 -12 -12 -12 -13 -13 -13 -13 -13 -13 -13 -14 -14 -14 -14 -14 -14
-1 -1 -2 -1 -1 1 1 1 1 1 -0 -1 -2 -3 -4 -6 -7 -7 -7 -8 -8 -8 -9 -9 -9 -10 -10 -10 -11 -12 -12 -13 -13 -13 -12 -13 -13 -13 -14 -14 -14 -15 -15 -15
-0 -2 -2 -1 -0 1 1 1 1 0 -1 -2 -3 -4 -5 -6 -7 -7 -7 -8 -8 -9 -9 -9 -10 -10 -10 -10 -11 -11 -12 -12 -12 -12 -12 -13 -14 -14 -14 -14 -15 -15 -15 -15
-1 -2 -1 -0 1 1 1 1 0 -0 -1 -2 -4 -5 -5 -6 -7 -7 -8 -8 -8 -9 -9 -9 -9 -10 -10 -10 -11 -11 -12 -12 -12 -12 -13 -14 -14 -14 -15 -15 -15 -14 -15 -14
Wind_Speed
8 9 7 7 5 0 2 3 4 5 5 8 12 11 8 8 10 12 11 12 13 12 11 11 12 14 15 17 17 17 17 16 14 13 13 12 11 11 10 13 19 21 21 21
8 7 6 3 6 6 5 5 4 4 6 7 10 10 8 9 8 7 8 10 11 12 14 14 15 15 16 17 17 17 17 17 15 14 12 9 10 9 10 14 18 20 21 20
8 3 5 6 9 8 5 4 2 3 5 6 8 6 6 5 6 8 8 8 9 11 11 11 12 12 13 15 17 18 17 17 15 14 11 12 10 10 11 13 13 18 22 21
7 5 6 8 6 6 3 2 2 4 5 5 7 5 5 4 7 9 10 10 11 10 9 9 11 13 15 15 16 17 18 17 15 14 14 15 13 13 14 13 13 16 20 19
4 5 7 7 5 4 5 3 1 2 6 4 2 4 2 2 6 7 9 10 10 10 9 9 11 12 13 14 15 16 17 17 17 16 17 16 14 13 13 14 15 14 13 16
4 2 4 3 3 3 4 3 4 5 4 2 1 5 2 1 1 4 7 10 11 11 9 9 9 11 12 14 15 16 17 17 18 18 18 18 18 18 18 19 17 16 14 13
8 4 7 5 7 8 9 7 6 7 4 2 3 4 3 3 2 2 6 10 11 10 9 9 12 13 14 15 16 17 18 18 18 18 18 17 18 18 18 18 17 17 14 15
6 5 7 6 3 3 5 5 4 3 5 5 2 2 5 5 2 3 6 9 10 9 8 9 10 11 13 14 16 17 18 18 18 18 18 16 17 14 14 17 16 16 14 14
4 5 5 4 3 3 3 3 2 4 3 5 2 1 3 2 5 7 8 9 10 9 8 9 9 10 11 13 14 16 17 17 18 18 17 15 16 16 16 17 15 14 14 15
2 4 5 6 4 7 5 6 4 3 4 7 5 4 4 2 8 9 10 11 10 8 8 8 8 9 10 11 12 14 15 16 16 17 16 16 15 15 16 15 16 16 16 16
2 1 6 5 5 4 4 4 5 4 3 3 6 4 5 3 6 9 11 10 10 8 8 8 8 8 10 10 12 13 15 16 16 16 16 15 15 15 15 14 16 16 15 16
2 3 3 3 1 2 4 4 4 1 3 4 3 5 4 4 5 8 10 10 8 7 8 7 8 9 10 11 12 13 14 15 16 16 15 15 15 15 15 15 16 16 16 15
3 3 4 4 0 5 5 3 1 4 3 3 4 6 3 3 7 8 9 9 7 7 8 7 7 9 11 11 12 13 13 14 15 15 15 15 15 15 15 16 16 16 16 16
4 3 3 5 4 2 3 2 0 4 3 4 6 7 7 9 9 11 11 9 7 8 8 8 9 9 10 10 11 12 12 13 15 15 15 15 15 15 15 15 15 16 16 15
4 2 1 1 3 1 2 1 1 4 5 5 6 6 8 8 9 11 11 9 10 11 11 10 10 9 10 11 11 12 12 13 14 15 15 15 14 14 14 15 15 15 15 16
3 2 1 1 3 1 2 2 2 3 3 4 6 7 5 8 8 9 11 9 10 11 11 11 12 11 11 11 12 13 13 13 14 14 14 15 15 15 15 14 14 15 15 15
2 2 1 3 4 3 5 6 5 3 4 5 6 6 7 9 11 12 9 7 9 10 11 11 11 10 10 10 11 12 12 12 13 13 14 15 14 15 15 16 15 15 14 14
5 3 2 2 5 4 4 2 3 3 6 6 5 6 8 8 10 7 3 5 7 8 9 9 9 10 9 8 10 11 11 11 12 13 13 14 14 14 15 14 14 14 13 12
3 5 3 2 3 8 3 3 4 2 5 3 4 7 8 7 7 3 3 4 5 4 6 6 7 7 8 9 10 11 11 11 12 13 14 14 14 14 14 13 14 13 12 11
6 6 5 3 2 6 2 3 3 3 5 2 3 6 7 8 8 4 5 5 4 5 5 6 7 7 9 9 9 10 11 11 12 14 14 14 13 14 13 12 12 12 12 12
1 3 3 4 5 8 4 3 5 2 4 2 3 5 5 4 5 7 7 5 5 5 6 7 8 8 9 9 9 10 11 11 13 14 14 14 13 13 11 9 10 12 12 12
7 6 5 5 4 8 4 7 6 6 1 2 3 3 4 5 6 7 7 7 8 8 8 8 8 9 9 9 9 11 12 13 13 14 14 14 13 12 12 10 10 11 11 11
7 8 6 9 7 3 3 5 4 3 0 2 2 3 3 4 5 6 6 6 6 7 8 8 8 10 10 9 9 11 14 14 14 14 14 14 14 11 11 10 10 9 8 8
4 4 4 4 6 4 3 4 4 3 2 2 2 2 2 2 4 5 6 7 7 8 8 8 10 12 12 11 12 11 13 14 14 15 15 14 13 12 10 10 9 9 9 9
6 7 4 4 3 3 3 3 3 3 4 4 4 4 4 3 3 4 5 6 7 8 8 9 10 11 13 13 14 14 14 14 15 16 15 15 14 12 11 11 9 12 9 12
6 8 8 7 6 7 5 4 5 4 3 4 4 4 4 4 3 4 5 5 6 8 8 10 11 13 14 14 15 15 14 14 15 16 16 14 14 13 12 12 12 16 16 19
Wind_Direction
29 53 29 350 1 94 124 94 72 54 55 79 97 98 71 50 50 43 33 24 15 8 357 5 9 7 5 4 1 357 355 353 353 352 347 342 341 340 338 340 341 340 340 339
46 31 330 338 25 54 88 95 87 91 75 97 102 88 64 48 53 46 33 18 4 1 1 2 3 3 1 358 356 354 353 350 352 349 343 337 334 334 335 337 336 338 338 335
88 342 345 52 37 38 51 101 138 141 77 88 115 99 92 51 52 42 26 9 2 3 351 350 356 356 356 356 354 351 348 348 349 349 347 344 340 340 342 339 336 335 334 332
65 8 35 50 40 32 345 351 257 182 151 178 158 167 169 111 43 22 6 358 351 348 345 349 355 355 355 352 349 347 346 346 349 350 350 348 348 343 338 334 329 328 328 328
37 11 30 32 0 357 282 319 260 172 153 120 135 142 202 76 34 3 347 341 338 337 343 347 352 351 352 351 349 347 345 348 351 351 350 348 348 343 337 335 332 331 328 330
9 20 44 348 343 2 322 31 85 66 94 149 239 174 231 41 59 328 333 333 333 333 339 343 348 352 353 351 350 349 347 349 351 352 351 349 347 344 340 340 337 336 334 334
1 19 5 4 9 6 27 43 17 2 359 277 77 108 182 174 176 316 328 325 325 329 338 345 352 355 354 352 351 350 348 349 350 350 348 346 347 344 341 338 335 334 333 334
28 345 352 2 40 2 24 72 98 289 280 296 37 158 207 189 217 297 310 312 318 328 339 344 350 355 352 351 352 351 349 347 349 349 346 344 348 345 339 335 332 330 330 329
44 298 321 347 345 51 64 79 134 161 292 284 265 176 233 230 311 311 310 317 322 327 335 339 347 356 353 353 353 349 347 347 347 345 343 343 346 342 338 334 332 331 330 330
100 297 311 319 38 33 83 130 80 69 331 303 290 222 214 263 306 310 314 318 321 327 333 338 351 356 355 355 351 348 347 346 343 343 343 343 340 339 337 335 335 333 332 334
65 218 316 15 44 357 27 60 85 99 160 240 293 277 169 211 286 303 306 308 316 328 334 342 351 355 352 353 351 347 346 345 343 341 339 338 337 337 337 337 336 334 334 336
66 114 300 293 3 20 96 96 117 130 259 206 236 265 166 197 285 296 299 306 316 325 330 341 348 353 352 351 349 346 344 343 340 338 337 336 336 337 338 337 336 336 336 336
102 95 354 0 37 18 46 35 113 135 148 194 213 274 203 282 303 300 303 313 319 325 334 342 349 354 350 347 344 341 340 340 338 338 337 336 337 338 337 336 336 337 337 336
100 111 184 239 269 304 313 331 174 140 177 234 235 279 301 313 316 323 326 326 322 335 340 344 349 349 344 341 339 337 337 338 339 338 336 336 336 335 334 335 337 338 338 338
85 135 229 266 12 271 228 270 218 169 184 209 256 271 285 298 310 312 319 327 336 343 344 347 347 343 339 338 337 337 336 336 337 336 336 335 333 334 335 336 338 339 339 340
64 116 42 275 4 296 221 219 171 161 190 236 265 277 263 301 316 317 323 333 338 339 342 346 344 341 338 336 336 336 333 333 334 332 332 333 336 337 338 337 339 339 338 337
80 117 68 287 324 335 269 209 187 211 221 223 249 263 305 319 322 317 323 341 337 338 344 344 340 335 330 328 331 329 326 326 329 329 330 333 335 338 338 339 341 339 336 335
125 108 105 329 17 283 274 150 176 239 259 233 241 276 298 297 302 303 359 350 338 342 342 335 330 328 322 320 326 325 322 324 327 328 330 333 335 335 336 338 339 337 333 332
109 126 108 88 296 279 283 235 190 230 288 239 246 289 303 313 313 310 47 10 348 343 332 322 319 315 316 321 324 325 324 324 328 331 333 332 332 333 334 338 336 335 333 331
59 88 111 134 263 264 250 160 137 99 301 286 260 296 314 341 336 327 21 10 358 345 331 324 321 319 321 319 323 325 324 325 328 330 329 328 328 329 327 332 332 332 333 335
112 82 137 179 236 267 236 155 118 122 273 309 311 307 319 311 282 323 358 1 356 342 329 325 322 320 316 316 324 323 321 319 320 323 324 325 325 321 319 325 327 329 334 334
182 172 191 165 217 268 203 141 167 211 242 310 313 320 313 301 314 336 348 347 346 339 332 327 326 322 318 317 320 319 317 314 316 318 319 319 318 317 325 320 319 322 327 331
196 191 188 193 213 259 184 170 161 144 108 348 342 349 338 322 331 341 341 340 339 333 328 326 323 321 319 316 316 315 315 315 316 316 315 313 312 310 309 309 311 314 318 324
241 162 170 236 258 231 163 119 98 86 83 59 68 53 34 347 346 348 341 343 339 331 330 328 328 326 321 319 318 312 312 316 316 314 313 312 312 309 304 307 309 312 311 312
219 169 184 240 245 135 157 143 119 100 94 92 85 76 63 44 14 353 339 335 331 333 328 329 325 320 317 319 318 318 318 316 315 314 313 314 314 309 305 304 300 304 296 301
190 176 177 214 200 171 185 152 130 123 114 109 107 90 67 51 15 351 336 326 324 325 324 324 323 323 320 319 317 317 317 318 316 317 318 318 317 314 314 310 306 304 307 312
Height
1547 1554 1563 1563 1560 1558 1559 1563 1568 1574 1575 1582 1588 1595 1598 1598 1595 1595 1593 1591 1589 1587 1585 1581 1576 1571 1566 1560 1555 1549 1543 1538 1532 1526 1520 1514 1510 1505 1501 1498 1495 1490 1486 1481
1557 1564 1564 1561 1560 1559 1560 1565 1570 1575 1578 1585 1594 1599 1601 1600 1599 1599 1596 1594 1591 1588 1584 1580 1576 1571 1565 1560 1554 1548 1542 1536 1530 1525 1519 1514 1509 1504 1499 1495 1491 1487 1482 1477
1563 1566 1562 1562 1564 1564 1564 1566 1568 1573 1582 1586 1592 1600 1604 1604 1601 1600 1598 1596 1593 1589 1585 1580 1576 1571 1565 1559 1553 1547 1541 1535 1529 1523 1517 1511 1505 1500 1495 1489 1485 1482 1477 1473
1565 1565 1563 1565 1566 1567 1568 1565 1566 1569 1579 1588 1589 1602 1604 1604 1602 1600 1598 1596 1593 1589 1585 1581 1576 1570 1564 1559 1552 1546 1539 1533 1527 1521 1515 1509 1503 1497 1492 1487 1482 1478 1474 1469
1568 1566 1567 1567 1568 1567 1566 1565 1565 1567 1574 1583 1586 1596 1603 1603 1603 1602 1599 1596 1593 1589 1585 1580 1575 1570 1564 1557 1550 1544 1538 1532 1525 1519 1514 1508 1502 1496 1490 1484 1479 1473 1468 1464
1569 1567 1568 1569 1567 1567 1565 1565 1567 1572 1576 1579 1584 1591 1602 1605 1604 1602 1599 1596 1592 1587 1583 1579 1574 1568 1562 1555 1548 1542 1535 1530 1524 1518 1512 1506 1500 1493 1487 1481 1475 1469 1464 1459
1574 1571 1571 1569 1569 1569 1569 1574 1578 1576 1577 1579 1593 1597 1606 1603 1602 1600 1598 1595 1590 1586 1581 1576 1571 1564 1558 1552 1545 1539 1533 1527 1521 1515 1510 1504 1498 1492 1486 1479 1473 1468 1462 1457
1582 1580 1576 1573 1574 1575 1575 1578 1588 1590 1587 1588 1592 1600 1606 1601 1600 1599 1597 1594 1589 1584 1580 1575 1569 1563 1557 1550 1544 1537 1531 1525 1519 1513 1507 1502 1497 1490 1484 1478 1473 1467 1462 1456
1586 1582 1576 1575 1574 1574 1576 1584 1584 1593 1593 1595 1594 1603 1602 1600 1599 1597 1594 1590 1586 1582 1577 1573 1567 1561 1555 1549 1542 1536 1529 1523 1517 1511 1505 1500 1494 1488 1482 1476 1471 1465 1460 1454
1584 1586 1580 1577 1575 1578 1579 1584 1590 1590 1592 1590 1587 1600 1602 1600 1599 1595 1591 1587 1583 1579 1575 1570 1565 1559 1554 1548 1541 1535 1528 1522 1516 1510 1504 1498 1492 1487 1480 1474 1468 1462 1457 1452
1585 1588 1585 1582 1582 1584 1583 1586 1592 1599 1598 1598 1598 1594 1598 1598 1596 1594 1590 1586 1581 1577 1573 1568 1563 1558 1552 1546 1539 1533 1527 1521 1514 1508 1502 1497 1491 1485 1479 1472 1466 1460 1454 1449
1588 1592 1591 1586 1585 1585 1585 1588 1591 1595 1597 1604 1609 1601 1595 1595 1594 1592 1588 1584 1579 1576 1572 1567 1562 1556 1550 1544 1537 1531 1525 1519 1513 1507 1501 1496 1489 1483 1477 1470 1464 1458 1452 1447
1589 1592 1591 1586 1589 1590 1591 1590 1590 1596 1601 1606 1609 1601 1595 1593 1592 1589 1586 1581 1577 1573 1569 1565 1559 1554 1548 1542 1536 1530 1524 1518 1512 1506 1500 1494 1487 1481 1475 1469 1463 1457 1451 1445
1588 1593 1593 1589 1588 1593 1592 1593 1592 1597 1603 1606 1604 1599 1594 1592 1590 1586 1582 1579 1575 1571 1567 1562 1557 1552 1546 1540 1534 1528 1523 1517 1510 1504 1498 1491 1485 1479 1473 1467 1461 1455 1449 1444
1589 1594 1593 1594 1596 1593 1594 1594 1594 1595 1597 1602 1599 1598 1594 1591 1588 1584 1580 1576 1572 1569 1565 1560 1555 1549 1544 1538 1532 1527 1521 1515 1509 1502 1496 1489 1483 1477 1471 1465 1459 1454 1448 1443
1591 1594 1594 1595 1597 1595 1595 1595 1594 1594 1595 1596 1597 1596 1591 1589 1586 1582 1578 1574 1571 1567 1563 1558 1553 1547 1542 1536 1531 1525 1519 1513 1507 1501 1494 1487 1481 1475 1469 1463 1457 1452 1447 1442
1595 1595 1595 1598 1600 1597 1596 1594 1593 1593 1593 1594 1596 1594 1589 1587 1584 1580 1576 1572 1570 1566 1561 1556 1551 1546 1540 1535 1530 1524 1518 1512 1505 1499 1492 1486 1479 1473 1467 1461 1456 1450 1445 1440
1595 1597 1602 1604 1602 1596 1593 1590 1591 1592 1591 1591 1590 1590 1588 1586 1582 1578 1574 1572 1568 1564 1560 1555 1549 1544 1539 1534 1528 1522 1516 1510 1504 1497 1490 1484 1478 1472 1466 1460 1454 1449 1444 1439
1594 1598 1606 1610 1603 1596 1592 1589 1589 1590 1591 1589 1589 1588 1586 1583 1579 1576 1574 1571 1567 1563 1558 1553 1548 1543 1537 1532 1526 1520 1514 1508 1502 1495 1489 1483 1477 1471 1465 1459 1453 1448 1443 1438
1597 1599 1607 1610 1599 1591 1587 1587 1587 1591 1592 1589 1588 1587 1584 1581 1580 1577 1573 1569 1565 1561 1556 1551 1546 1541 1535 1530 1524 1518 1512 1506 1500 1494 1488 1482 1476 1471 1465 1459 1453 1447 1442 1438
1598 1603 1607 1609 1607 1594 1587 1586 1588 1595 1593 1588 1586 1585 1583 1582 1581 1577 1572 1568 1563 1559 1554 1549 1544 1539 1534 1527 1521 1516 1510 1504 1498 1493 1487 1481 1475 1469 1464 1458 1452 1447 1442 1437
1595 1602 1605 1608 1610 1597 1584 1585 1588 1588 1586 1586 1585 1583 1581 1579 1577 1573 1569 1565 1561 1557 1552 1547 1542 1537 1532 1526 1520 1513 1508 1502 1497 1491 1485 1479 1473 1468 1462 1456 1451 1446 1441 1436
1590 1589 1591 1592 1589 1582 1582 1582 1584 1584 1584 1584 1582 1581 1578 1576 1573 1570 1567 1563 1559 1555 1550 1545 1540 1535 1530 1525 1518 1512 1506 1500 1494 1488 1482 1476 1470 1465 1460 1454 1449 1444 1439 1435
1584 1582 1584 1585 1581 1580 1581 1582 1583 1583 1583 1582 1580 1578 1575 1573 1571 1568 1565 1561 1557 1553 1548 1544 1538 1533 1528 1523 1517 1511 1504 1498 1492 1485 1479 1472 1466 1460 1455 1451 1446 1442 1437 1433
1576 1579 1581 1581 1579 1579 1580 1581 1582 1581 1580 1579 1577 1575 1573 1571 1568 1566 1563 1559 1556 1552 1547 1543 1538 1532 1527 1521 1515 1509 1503 1496 1489 1482 1475 1469 1462 1456 1451 1446 1443 1439 1435 1432
1571 1572 1576 1575 1573 1575 1577 1579 1580 1579 1578 1576 1575 1573 1571 1569 1567 1565 1562 1559 1555 1551 1547 1542 1537 1532 1526 1520 1514 1508 1501 1494 1487 1479 1472 1465 1459 1453 1448 1442 1437 1434 1432 1428